TimeEST,TemperatureF,Dew PointF,Humidity,Sea Level PressureIn,VisibilityMPH,Wind Direction,Wind SpeedMPH,Gust SpeedMPH,PrecipitationIn,Events,Conditions,WindDirDegrees,DateUTC
12:08 AM,10.4,3.2,73,29.85,4.0,NW,9.2,18.4,0.01,Snow,Light Snow,310,2005-01-23 05:08:00
12:53 AM,10.0,1.9,70,29.93,7.0,WNW,8.1,16.1,0.01,,Overcast,300,2005-01-23 05:53:00
1:53 AM,9.0,3.0,77,29.96,5.0,WNW,8.1,-,0.00,,Haze,300,2005-01-23 06:53:00
2:37 AM,8.6,1.4,73,29.93,9.0,NW,12.7,17.3,0.00,,Overcast,310,2005-01-23 07:37:00
2:53 AM,9.0,1.0,70,30.00,10.0,Variable,6.9,17.3,0.00,,Overcast,0,2005-01-23 07:53:00
3:53 AM,8.1,-0.9,67,30.02,9.0,NW,11.5,23.0,N/A,,Overcast,320,2005-01-23 08:53:00
4:53 AM,7.0,1.0,77,30.04,4.0,NW,6.9,-,0.00,Snow,Light Snow,310,2005-01-23 09:53:00
5:21 AM,6.8,1.4,79,30.00,2.5,NW,9.2,-,0.00,Snow,Light Snow,320,2005-01-23 10:21:00
5:30 AM,6.8,1.4,79,30.01,1.5,NW,6.9,-,0.00,Snow,Light Snow,320,2005-01-23 10:30:00
5:38 AM,6.8,1.4,79,30.01,2.0,NW,9.2,17.3,0.00,Snow,Light Snow,320,2005-01-23 10:38:00
5:46 AM,6.8,-0.4,72,30.01,4.0,NW,12.7,24.2,0.00,Snow,Light Snow,310,2005-01-23 10:46:00
5:53 AM,6.1,-0.9,73,30.08,5.0,NNW,12.7,20.7,0.00,,Overcast,330,2005-01-23 10:53:00
6:53 AM,5.0,-4.0,66,30.13,10.0,NW,9.2,17.3,0.00,,Overcast,320,2005-01-23 11:53:00
7:53 AM,5.0,-4.0,66,30.19,10.0,NNW,8.1,19.6,N/A,,Overcast,340,2005-01-23 12:53:00
8:53 AM,6.1,-2.9,67,30.23,10.0,NNW,10.4,-,N/A,,Overcast,330,2005-01-23 13:53:00
9:25 AM,6.8,-2.2,67,30.18,6.0,NNW,9.2,16.1,N/A,,Haze,330,2005-01-23 14:25:00
9:53 AM,7.0,-2.0,67,30.26,6.0,NW,11.5,19.6,N/A,,Haze,320,2005-01-23 14:53:00
10:53 AM,8.1,-2.9,61,30.30,10.0,NNW,11.5,17.3,N/A,,Overcast,330,2005-01-23 15:53:00
11:53 AM,10.0,-0.9,61,30.30,10.0,NNW,6.9,-,N/A,,Mostly Cloudy,340,2005-01-23 16:53:00
12:00 PM,10.4,-0.4,62,30.22,10.0,Variable,5.8,-,N/A,,Mostly Cloudy,0,2005-01-23 17:00:00
12:53 PM,10.9,-0.0,61,30.30,10.0,NW,6.9,-,N/A,,Overcast,310,2005-01-23 17:53:00
1:53 PM,15.1,1.9,56,30.29,10.0,NW,8.1,-,N/A,,Mostly Cloudy,320,2005-01-23 18:53:00
2:53 PM,17.1,3.0,54,30.29,10.0,WNW,8.1,-,N/A,,Mostly Cloudy,290,2005-01-23 19:53:00
3:53 PM,17.1,1.0,50,30.32,10.0,NW,6.9,-,N/A,,Scattered Clouds,320,2005-01-23 20:53:00
4:53 PM,16.0,-0.0,49,30.34,10.0,NW,5.8,-,N/A,,Clear,310,2005-01-23 21:53:00
5:53 PM,15.1,-0.0,51,30.37,10.0,NW,8.1,-,N/A,,Clear,310,2005-01-23 22:53:00
6:53 PM,14.0,-0.0,54,30.39,10.0,NNW,3.5,-,N/A,,Clear,330,2005-01-23 23:53:00
7:53 PM,12.9,-0.9,54,30.41,10.0,NNW,3.5,-,N/A,,Clear,330,2005-01-24 00:53:00
9:53 PM,10.9,-0.0,61,30.42,10.0,NNW,4.6,-,N/A,,Clear,330,2005-01-24 02:53:00
10:53 PM,8.1,1.0,73,30.42,10.0,Calm,Calm,-,N/A,,Clear,0,2005-01-24 03:53:00
11:53 PM,6.1,1.0,80,30.43,10.0,NNW,3.5,-,N/A,,Clear,330,2005-01-24 04:53:00